Date String (YYYY-MM-DD hh:mm:ss) UTC,Instrument flags,Ambient pressure (hPa),Sample flow (lpm),Bypass flow (lpm),Sample temperature (°C),Ambient temperature (°C),ASC tube jacket temperature (°C),LED temperature (°C),Box temperature (°C),Sample RH (%),Span deviation,Mass concentration (μg/m³),Mass concentration (μg/m³),Mass concentration (μg/m³)
DateTimeUTC,F1_M11,P_M11,Q1_M11,Q2_M11,T1_M11,T2_M11,T3_M11,T4_M11,T5_M11,U1_M11,ZSPAN_M11,X0_M11,X2_M11,X1_M11
2022-09-27 20:00:00,,0833.6,4.99,0.00,29.9,28.0,00.0,38.6,31.8,20.7,0000.0,0014.74,0004.42,0003.48
2022-09-27 20:01:00,,0833.6,5.00,0.00,29.9,28.3,00.0,38.6,31.8,20.5,0000.0,0015.60,0004.48,0003.50
2022-09-27 20:02:00,,0833.6,5.00,0.00,30.0,28.5,00.0,38.6,31.9,20.4,0000.0,0014.63,0004.46,0003.51
2022-09-27 20:03:00,,0833.6,5.00,0.00,30.0,28.6,00.0,38.6,31.9,19.6,0000.0,0014.40,0004.43,0003.52
2022-09-27 20:04:00,,0833.6,5.00,0.00,30.0,28.7,00.0,38.6,31.9,19.9,0000.0,0014.41,0004.36,0003.53
2022-09-27 20:05:00,,0833.6,5.00,0.00,30.0,28.8,00.0,38.6,32.0,20.4,0000.0,0014.92,0004.35,0003.53
2022-09-27 20:06:00,,0833.6,4.99,0.00,30.1,29.0,00.0,38.7,32.0,20.7,0000.0,0015.56,0004.35,0003.55
2022-09-27 20:07:00,,0833.6,5.01,0.00,30.1,29.1,00.0,38.7,32.1,20.1,0000.0,0014.79,0004.33,0003.55
2022-09-27 20:08:00,,0833.7,5.00,0.00,30.1,29.1,00.0,38.7,32.1,20.8,0000.0,0014.11,0004.30,0003.56
2022-09-27 20:09:00,,0833.6,5.00,0.00,30.2,28.4,00.0,38.7,32.0,20.6,0000.0,0013.31,0004.32,0003.56
2022-09-27 20:10:00,,0833.6,5.00,0.00,30.1,26.9,00.0,38.7,31.8,20.2,0000.0,0013.65,0004.32,0003.55
2022-09-27 20:11:00,,0833.6,4.99,0.00,30.0,26.4,00.0,38.6,31.7,20.2,0000.0,0013.53,0004.32,0003.56
2022-09-27 20:12:00,,0833.6,4.99,0.00,29.9,26.6,00.0,38.6,31.6,19.9,0000.0,0013.16,0004.30,0003.55
2022-09-27 20:13:00,,0833.6,5.00,0.00,29.9,26.9,00.0,38.6,31.5,19.9,0000.0,0012.63,0004.36,0003.56
2022-09-27 20:14:00,,0833.6,5.01,0.00,29.8,27.3,00.0,38.5,31.6,20.2,0000.0,0013.84,0004.38,0003.56
2022-09-27 20:15:00,,0833.6,5.00,0.00,29.8,27.6,00.0,38.5,31.6,19.5,0000.0,0013.94,0004.40,0003.56
2022-09-27 20:16:00,,0833.6,4.98,0.00,29.8,27.9,00.0,38.5,31.7,19.6,0000.0,0013.33,0004.39,0003.56
2022-09-27 20:17:00,,0833.6,5.01,0.00,29.8,28.1,00.0,38.5,31.7,19.2,0000.0,0013.24,0004.40,0003.57
2022-09-27 20:18:00,,0833.6,4.99,0.00,29.9,28.3,00.0,38.5,31.7,19.3,0000.0,0013.82,0004.44,0003.58
2022-09-27 20:19:00,,0833.6,5.01,0.00,29.9,28.5,00.0,38.5,31.8,19.7,0000.0,0014.54,0004.47,0003.59
2022-09-27 20:20:00,,0833.6,4.99,0.00,29.9,28.6,00.0,38.6,31.9,19.2,0000.0,0014.89,0004.50,0003.60
2022-09-27 20:21:00,,0833.6,4.99,0.00,29.9,28.7,00.0,38.6,31.9,18.8,0000.0,0015.02,0004.54,0003.62
2022-09-27 20:22:00,,0833.6,5.01,0.00,30.0,28.8,00.0,38.6,31.9,19.1,0000.0,0015.01,0004.53,0003.62
2022-09-27 20:23:00,,0833.6,5.00,0.00,30.0,28.9,00.0,38.6,32.0,19.0,0000.0,0015.95,0004.54,0003.62
2022-09-27 20:24:00,,0833.6,4.99,0.00,30.0,29.0,00.0,38.6,32.0,19.5,0000.0,0015.79,0004.48,0003.62
2022-09-27 20:25:00,,0833.6,5.02,0.00,30.1,28.9,00.0,38.7,32.1,19.3,0000.0,0014.88,0004.46,0003.62
2022-09-27 20:26:00,,0833.5,4.99,0.00,30.1,27.7,00.0,38.6,31.9,19.2,0000.0,0014.65,0004.45,0003.61
2022-09-27 20:27:00,,0833.5,5.00,0.00,30.0,26.5,00.0,38.6,31.8,19.0,0000.0,0015.42,0004.48,0003.60
2022-09-27 20:28:00,,0833.5,5.00,0.00,29.9,26.5,00.0,38.5,31.7,19.5,0000.0,0016.20,0004.52,0003.59
2022-09-27 20:29:00,,0833.6,4.99,0.00,29.9,26.7,00.0,38.5,31.6,20.0,0000.0,0016.24,0004.52,0003.58
2022-09-27 20:30:00,,0833.5,4.99,0.00,29.8,27.1,00.0,38.5,31.5,20.3,0000.0,0015.88,0004.52,0003.58
2022-09-27 20:31:00,,0833.5,4.99,0.00,29.8,27.4,00.0,38.5,31.6,19.6,0000.0,0015.68,0004.52,0003.57
2022-09-27 20:32:00,,0833.5,5.00,0.00,29.8,27.7,00.0,38.5,31.6,19.1,0000.0,0015.12,0004.50,0003.56
2022-09-27 20:33:00,,0833.6,5.01,0.00,29.8,28.0,00.0,38.5,31.7,19.3,0000.0,0015.21,0004.49,0003.56
2022-09-27 20:34:00,,0833.6,5.00,0.00,29.8,28.2,00.0,38.5,31.7,19.7,0000.0,0014.85,0004.45,0003.56
2022-09-27 20:35:00,,0833.6,5.00,0.00,29.8,28.4,00.0,38.5,31.7,19.5,0000.0,0015.50,0004.40,0003.56
2022-09-27 20:36:00,,0833.5,5.00,0.00,29.8,28.5,00.0,38.5,31.8,18.8,0000.0,0015.21,0004.39,0003.56
2022-09-27 20:37:00,,0833.5,5.01,0.00,29.9,28.6,00.0,38.5,31.8,18.9,0000.0,0015.35,0004.37,0003.57
2022-09-27 20:38:00,,0833.5,5.00,0.00,29.9,28.7,00.0,38.5,31.9,18.7,0000.0,0015.30,0004.39,0003.58
2022-09-27 20:39:00,,0833.5,5.00,0.00,29.9,28.8,00.0,38.6,31.9,19.1,0000.0,0015.37,0004.42,0003.59
2022-09-27 20:40:00,,0833.5,5.00,0.00,30.0,28.9,00.0,38.6,32.0,19.4,0000.0,0018.58,0004.81,0003.61
2022-09-27 20:41:00,,0833.5,5.01,0.00,30.0,29.0,00.0,38.6,32.0,19.4,0000.0,0018.34,0004.93,0003.61
2022-09-27 20:42:00,,0833.5,4.99,0.00,30.1,29.1,00.0,38.6,32.0,19.6,0000.0,0018.56,0004.96,0003.62
2022-09-27 20:43:00,,0833.4,5.01,0.00,30.1,28.5,00.0,38.6,32.0,19.1,0000.0,0018.90,0004.96,0003.62
2022-09-27 20:44:00,,0833.4,5.00,0.00,30.1,27.3,00.0,38.6,31.9,19.1,0000.0,0018.92,0004.99,0003.63
2022-09-27 20:45:00,,0833.4,5.00,0.00,30.0,27.1,00.0,38.6,31.9,18.8,0000.0,0018.69,0005.03,0003.63
2022-09-27 20:46:00,,0833.3,5.01,0.00,30.0,27.3,00.0,38.6,31.7,18.9,0000.0,0017.86,0005.05,0003.63
2022-09-27 20:47:00,,0833.3,5.01,0.00,29.9,27.6,00.0,38.6,31.8,18.3,0000.0,0018.11,0005.06,0003.62
2022-09-27 20:48:00,,0833.3,4.99,0.00,29.9,27.9,00.0,38.6,31.7,18.5,0000.0,0017.65,0005.05,0003.61
2022-09-27 20:49:00,,0833.3,5.00,0.00,29.9,28.1,00.0,38.6,31.8,18.1,0000.0,0017.38,0005.05,0003.60
2022-09-27 20:50:00,,0833.3,5.01,0.00,29.9,28.4,00.0,38.6,31.9,18.6,0000.0,0016.39,0004.99,0003.58
2022-09-27 20:51:00,,0833.3,5.00,0.00,29.9,28.5,00.0,38.6,31.9,18.8,0000.0,0012.36,0004.61,0003.55
2022-09-27 20:52:00,,0833.3,4.99,0.00,30.0,28.7,00.0,38.6,31.9,19.3,0000.0,0012.67,0004.48,0003.54
2022-09-27 20:53:00,,0833.3,5.00,0.00,30.0,28.8,00.0,38.6,32.0,19.1,0000.0,0013.26,0004.45,0003.53
2022-09-27 20:54:00,,0833.3,5.01,0.00,30.0,28.9,00.0,38.6,32.0,18.9,0000.0,0012.84,0004.44,0003.52
2022-09-27 20:55:00,,0833.2,4.99,0.00,30.0,29.0,00.0,38.7,32.0,18.9,0000.0,0012.83,0004.45,0003.50
2022-09-27 20:56:00,,0833.2,5.00,0.00,30.1,29.1,00.0,38.7,32.1,19.2,0000.0,0013.49,0004.44,0003.50
2022-09-27 20:57:00,,0833.2,5.01,0.00,30.1,29.2,00.0,38.7,32.1,19.5,0000.0,0013.97,0004.44,0003.49
2022-09-27 20:58:00,,0833.2,5.00,0.00,30.2,29.2,00.0,38.7,32.1,19.6,0000.0,0014.45,0004.44,0003.49
2022-09-27 20:59:00,,0833.2,4.99,0.00,30.2,29.3,00.0,38.8,32.2,19.6,0000.0,0015.38,0004.46,0003.49
